DW4596 Weather Reports


time (UTC)temp
F
wind
direction
speed
knots
gust
knots
rain 1hr
in
rain 24hr
in
rain mn
in
humidity
%
barometer
mb
20260504041521 45 215 11.3 0.0 0.00 0.00 0.00 83 1006.7
20260504040015 45 227 8.7 0.0 0.00 0.00 0.00 84 1006.6
20260504034517 45 212 7.8 0.0 0.00 0.00 0.00 84 1006.6
20260504033016 46 233 7.0 0.0 0.00 0.00 0.00 84 1006.6
20260504031514 45 220 7.0 0.0 0.00 0.00 0.00 84 1006.6
20260504030016 45 231 7.0 0.0 0.00 0.00 0.00 83 1006.8
20260504024514 45 209 7.0 0.0 0.00 0.00 0.00 82 1006.9
20260504023012 46 232 8.7 0.0 0.00 0.00 0.00 79 1006.9
20260504021513 46 226 10.4 0.0 0.00 0.00 0.00 76 1006.9
20260504020009 47 184 7.0 0.0 0.00 0.00 0.00 73 1006.9
20260504014515 47 183 7.0 0.0 0.00 0.00 0.00 73 1006.9
20260504013018 47 192 7.8 0.0 0.00 0.00 0.00 73 1006.9
20260504011520 46 182 4.3 0.0 0.00 0.00 0.00 73 1006.9
20260504010012 46 188 1.7 0.0 0.00 0.00 0.00 70 1006.8
20260504004510 46 188 2.6 0.0 0.00 0.00 0.00 70 1006.8
20260504003008 46 198 2.6 0.0 0.00 0.00 0.00 67 1006.8
20260504001508 46 202 4.3 0.0 0.00 0.00 0.00 66 1007.0
20260504000008 47 209 6.1 0.0 0.00 0.00 0.00 62 1006.8
20260503234511 47 202 7.0 0.0 0.00 0.00 0.00 61 1006.8
20260503233010 47 221 8.7 0.0 0.00 0.00 0.00 59 1006.8
20260503231514 47 209 8.7 0.0 0.00 0.00 0.00 60 1006.9
20260503230010 48 197 7.8 0.0 0.00 0.00 0.00 58 1006.9
20260503224516 48 219 7.8 0.0 0.00 0.00 0.00 58 1006.9
20260503223012 48 198 10.4 0.0 0.00 0.00 0.00 53 1006.8
20260503221513 49 212 9.6 0.0 0.00 0.00 0.00 54 1006.8
20260503220010 49 214 10.4 0.0 0.00 0.00 0.00 54 1006.9
20260503214515 49 200 11.3 0.0 0.00 0.00 0.00 52 1006.9
20260503213009 49 204 10.4 0.0 0.00 0.00 0.00 51 1007.0
20260503211506 48 230 9.6 0.0 0.00 0.00 0.00 58 1007.0
20260503210005 48 204 11.3 0.0 0.00 0.00 0.00 61 1007.3
20260503204515 47 189 12.2 0.0 0.00 0.00 0.00 60 1007.4
20260503203006 47 217 12.2 0.0 0.00 0.00 0.00 64 1007.6
20260503201506 47 240 13.0 0.0 0.00 0.00 0.00 66 1007.7
20260503200005 48 211 11.3 0.0 0.00 0.00 0.00 60 1008.0
20260503194501 48 223 11.3 0.0 0.00 0.00 0.00 60 1008.0
20260503193058 47 196 11.3 0.0 0.00 0.00 0.00 57 1008.3
20260503191556 47 221 12.2 0.0 0.00 0.00 0.00 56 1008.5
20260503190054 46 197 13.0 0.0 0.00 0.00 0.00 55 1008.6
20260503184605 46 207 13.0 0.0 0.00 0.00 0.00 55 1008.8
20260503183057 46 194 13.0 0.0 0.00 0.00 0.00 54 1009.0
20260503181601 46 215 12.2 0.0 0.00 0.00 0.00 57 1009.1
20260503180105 47 221 12.2 0.0 0.00 0.00 0.00 58 1009.3
20260503174556 47 254 12.2 0.0 0.00 0.00 0.00 58 1009.3
20260503173104 46 211 11.3 0.0 0.00 0.00 0.00 55 1009.3
20260503171551 46 195 11.3 0.0 0.00 0.00 0.00 57 1009.4
20260503081533 40 279 5.2 0.0 0.00 0.00 0.01 70 1011.1
20260503071531 41 267 5.2 0.0 0.00 0.00 0.01 72 1011.1
20260503054536 41 249 5.2 0.0 0.00 0.00 0.01 74 1011.2
20260503053032 41 260 5.2 0.0 0.00 0.00 0.01 74 1011.3
20260503051527 41 254 4.3 0.0 0.00 0.00 0.01 76 1011.4
20260503050032 41 248 4.3 0.0 0.00 0.00 0.01 80 1011.6
20260503044527 41 238 4.3 0.0 0.00 0.00 0.01 80 1011.7
20260503043039 41 254 4.3 0.0 0.00 0.00 0.01 81 1011.8